Location: Potomac
(46.8816°N, 113.5795°W)
Time: 01:08:14
(UTC+00:00)

X-37B - Visible Passes

Search period start: 11 June 2023 00:00
Search period end: 21 June 2023 00:00
Orbit: 277 x 277 km, 45.0° (Epoch: 01 November)

Date Brightness Start Highest point End Pass type
(mag) Time Alt. Az. Time Alt. Az. Time Alt. Az.
12 Jun 2.4 09:44:49 13° SE 09:44:49 13° SE 09:45:39 10° ESE visible
13 Jun 1.8 09:45:11 19° SE 09:45:11 19° SE 09:46:46 10° ESE visible
14 Jun 1.1 09:45:32 28° SSE 09:45:32 28° SSE 09:47:36 10° E visible
15 Jun 0.4 09:45:54 38° S 09:46:00 38° SSE 09:48:21 10° E visible
16 Jun 0.1 09:46:18 44° SSW 09:46:38 48° S 09:49:02 10° E visible
17 Jun 0.0 09:46:46 42° SW 09:47:17 54° S 09:49:42 10° E visible
18 Jun 0.0 09:47:22 40° SW 09:47:56 53° S 09:50:21 10° ESE visible
19 Jun 0.1 09:48:12 41° SW 09:48:35 46° S 09:50:57 10° ESE visible
20 Jun 0.5 09:49:26 35° S 09:49:26 35° S 09:51:31 10° SE visible
